owner,sensor,date,latitude,longitude,air_temperature,qcFlag 
DISL,ioos:station:DISL:PPTA:1,2017-12-01T00:00:00Z,30.2791,-87.5561,20.4,11111222 
DISL,ioos:station:DISL:PPTA:1,2017-12-01T00:30:00Z,30.2791,-87.5561,20.14,1111122 
DISL,ioos:station:DISL:PPTA:1,2017-12-01T01:00:00Z,30.2791,-87.5561,20.1,11111222 
DISL,ioos:station:DISL:PPTA:1,2017-12-01T01:30:00Z,30.2791,-87.5561,20.24,1111122 
DISL,ioos:station:DISL:PPTA:1,2017-12-01T02:00:00Z,30.2791,-87.5561,20.3,11111222 
DISL,ioos:station:DISL:PPTA:1,2017-12-01T02:30:00Z,30.2791,-87.5561,20.17,1111122 
DISL,ioos:station:DISL:PPTA:1,2017-12-01T03:00:00Z,30.2791,-87.5561,20.2,11111222 
DISL,ioos:station:DISL:PPTA:1,2017-12-01T03:30:00Z,30.2791,-87.5561,20.48,1111122 
DISL,ioos:station:DISL:PPTA:1,2017-12-01T04:00:00Z,30.2791,-87.5561,20.1,11111222 
DISL,ioos:station:DISL:PPTA:1,2017-12-01T04:30:00Z,30.2791,-87.5561,19.8,1111122 
DISL,ioos:station:DISL:PPTA:1,2017-12-01T05:00:00Z,30.2791,-87.5561,19.6,11111222 
DISL,ioos:station:DISL:PPTA:1,2017-12-01T05:30:00Z,30.2791,-87.5561,19.36,1111122 
DISL,ioos:station:DISL:PPTA:1,2017-12-01T06:00:00Z,30.2791,-87.5561,19.0,11111222 
DISL,ioos:station:DISL:PPTA:1,2017-12-01T06:30:00Z,30.2791,-87.5561,18.89,1111122 
DISL,ioos:station:DISL:PPTA:1,2017-12-01T07:00:00Z,30.2791,-87.5561,18.8,11111222 
DISL,ioos:station:DISL:PPTA:1,2017-12-01T07:30:00Z,30.2791,-87.5561,18.37,1111122 
DISL,ioos:station:DISL:PPTA:1,2017-12-01T08:00:00Z,30.2791,-87.5561,18.5,11111222 
DISL,ioos:station:DISL:PPTA:1,2017-12-01T08:30:00Z,30.2791,-87.5561,18.45,1111122 
DISL,ioos:station:DISL:PPTA:1,2017-12-01T09:00:00Z,30.2791,-87.5561,18.2,11111222 
DISL,ioos:station:DISL:PPTA:1,2017-12-01T09:30:00Z,30.2791,-87.5561,18.14,1111122 
DISL,ioos:station:DISL:PPTA:1,2017-12-01T10:00:00Z,30.2791,-87.5561,18.2,11111222 
DISL,ioos:station:DISL:PPTA:1,2017-12-01T10:30:00Z,30.2791,-87.5561,18.42,1111122 
DISL,ioos:station:DISL:PPTA:1,2017-12-01T11:00:00Z,30.2791,-87.5561,18.4,11111222 
DISL,ioos:station:DISL:PPTA:1,2017-12-01T11:30:00Z,30.2791,-87.5561,18.11,1111122 
DISL,ioos:station:DISL:PPTA:1,2017-12-01T12:00:00Z,30.2791,-87.5561,18.0,11111222 
DISL,ioos:station:DISL:PPTA:1,2017-12-01T12:30:00Z,30.2791,-87.5561,17.51,1111122 
DISL,ioos:station:DISL:PPTA:1,2017-12-01T13:00:00Z,30.2791,-87.5561,16.9,11111222 
DISL,ioos:station:DISL:PPTA:1,2017-12-01T13:30:00Z,30.2791,-87.5561,17.58,1111122 
DISL,ioos:station:DISL:PPTA:1,2017-12-01T14:00:00Z,30.2791,-87.5561,17.8,11111222 
DISL,ioos:station:DISL:PPTA:1,2017-12-01T14:30:00Z,30.2791,-87.5561,18.27,1111122 
DISL,ioos:station:DISL:PPTA:1,2017-12-01T15:00:00Z,30.2791,-87.5561,18.5,11111222 
DISL,ioos:station:DISL:PPTA:1,2017-12-01T15:30:00Z,30.2791,-87.5561,19.45,1111122 
DISL,ioos:station:DISL:PPTA:1,2017-12-01T16:00:00Z,30.2791,-87.5561,19.7,11111222 
DISL,ioos:station:DISL:PPTA:1,2017-12-01T16:30:00Z,30.2791,-87.5561,19.58,1111122 
DISL,ioos:station:DISL:PPTA:1,2017-12-01T17:00:00Z,30.2791,-87.5561,20.4,11111222 
DISL,ioos:station:DISL:PPTA:1,2017-12-01T17:30:00Z,30.2791,-87.5561,21.41,1111122 
DISL,ioos:station:DISL:PPTA:1,2017-12-01T18:00:00Z,30.2791,-87.5561,20.6,11111222 
DISL,ioos:station:DISL:PPTA:1,2017-12-01T18:30:00Z,30.2791,-87.5561,20.5,1111122 
DISL,ioos:station:DISL:PPTA:1,2017-12-01T19:00:00Z,30.2791,-87.5561,20.6,11111222 
DISL,ioos:station:DISL:PPTA:1,2017-12-01T19:30:00Z,30.2791,-87.5561,20.66,1111122 
DISL,ioos:station:DISL:PPTA:1,2017-12-01T20:00:00Z,30.2791,-87.5561,21.2,11111222 
DISL,ioos:station:DISL:PPTA:1,2017-12-01T20:30:00Z,30.2791,-87.5561,20.94,1111122 
DISL,ioos:station:DISL:PPTA:1,2017-12-01T21:00:00Z,30.2791,-87.5561,21.2,11111222 
DISL,ioos:station:DISL:PPTA:1,2017-12-01T21:30:00Z,30.2791,-87.5561,20.82,1111122 
DISL,ioos:station:DISL:PPTA:1,2017-12-01T22:00:00Z,30.2791,-87.5561,20.6,11111222 
DISL,ioos:station:DISL:PPTA:1,2017-12-01T22:30:00Z,30.2791,-87.5561,20.55,1111122 
DISL,ioos:station:DISL:PPTA:1,2017-12-01T23:00:00Z,30.2791,-87.5561,19.7,11111222 
DISL,ioos:station:DISL:PPTA:1,2017-12-01T23:30:00Z,30.2791,-87.5561,19.23,1111122 
DISL,ioos:station:DISL:PPTA:1,2017-12-02T00:00:00Z,30.2791,-87.5561,18.7,11111222 
DISL,ioos:station:DISL:PPTA:1,2017-12-02T00:30:00Z,30.2791,-87.5561,17.84,1111122 
DISL,ioos:station:DISL:PPTA:1,2017-12-02T01:00:00Z,30.2791,-87.5561,17.9,11111222 
DISL,ioos:station:DISL:PPTA:1,2017-12-02T01:30:00Z,30.2791,-87.5561,17.65,1111122 
DISL,ioos:station:DISL:PPTA:1,2017-12-02T02:00:00Z,30.2791,-87.5561,17.1,11111222 
DISL,ioos:station:DISL:PPTA:1,2017-12-02T02:30:00Z,30.2791,-87.5561,16.35,1111122 
DISL,ioos:station:DISL:PPTA:1,2017-12-02T03:00:00Z,30.2791,-87.5561,15.3,11111222 
DISL,ioos:station:DISL:PPTA:1,2017-12-02T03:30:00Z,30.2791,-87.5561,15.29,1111122 
DISL,ioos:station:DISL:PPTA:1,2017-12-02T04:00:00Z,30.2791,-87.5561,15.3,11111222 
DISL,ioos:station:DISL:PPTA:1,2017-12-02T04:30:00Z,30.2791,-87.5561,15.41,1111122 
DISL,ioos:station:DISL:PPTA:1,2017-12-02T05:00:00Z,30.2791,-87.5561,15.2,11111222 
DISL,ioos:station:DISL:PPTA:1,2017-12-02T05:30:00Z,30.2791,-87.5561,15.17,1111122 
DISL,ioos:station:DISL:PPTA:1,2017-12-02T06:00:00Z,30.2791,-87.5561,14.9,11111222 
DISL,ioos:station:DISL:PPTA:1,2017-12-02T06:30:00Z,30.2791,-87.5561,14.82,1111122 
DISL,ioos:station:DISL:PPTA:1,2017-12-02T07:00:00Z,30.2791,-87.5561,14.9,11111222 
DISL,ioos:station:DISL:PPTA:1,2017-12-02T07:30:00Z,30.2791,-87.5561,14.96,1111122 
DISL,ioos:station:DISL:PPTA:1,2017-12-02T08:00:00Z,30.2791,-87.5561,14.8,11111222 
DISL,ioos:station:DISL:PPTA:1,2017-12-02T08:30:00Z,30.2791,-87.5561,14.83,1111122 
DISL,ioos:station:DISL:PPTA:1,2017-12-02T09:00:00Z,30.2791,-87.5561,15.0,11111222 
DISL,ioos:station:DISL:PPTA:1,2017-12-02T09:30:00Z,30.2791,-87.5561,14.96,1111122 
DISL,ioos:station:DISL:PPTA:1,2017-12-02T10:00:00Z,30.2791,-87.5561,15.0,11111222 
DISL,ioos:station:DISL:PPTA:1,2017-12-02T10:30:00Z,30.2791,-87.5561,15.1,1111122 
DISL,ioos:station:DISL:PPTA:1,2017-12-02T11:00:00Z,30.2791,-87.5561,15.3,11111222 
DISL,ioos:station:DISL:PPTA:1,2017-12-02T11:30:00Z,30.2791,-87.5561,15.41,1111122 
DISL,ioos:station:DISL:PPTA:1,2017-12-02T12:00:00Z,30.2791,-87.5561,15.6,11111222 
DISL,ioos:station:DISL:PPTA:1,2017-12-02T12:30:00Z,30.2791,-87.5561,15.61,1111122 
DISL,ioos:station:DISL:PPTA:1,2017-12-02T13:00:00Z,30.2791,-87.5561,15.7,11111222 
DISL,ioos:station:DISL:PPTA:1,2017-12-02T13:30:00Z,30.2791,-87.5561,15.74,1111122 
DISL,ioos:station:DISL:PPTA:1,2017-12-02T14:00:00Z,30.2791,-87.5561,15.8,11111222 
DISL,ioos:station:DISL:PPTA:1,2017-12-02T14:30:00Z,30.2791,-87.5561,16.28,1111122 
DISL,ioos:station:DISL:PPTA:1,2017-12-02T15:00:00Z,30.2791,-87.5561,16.9,11111222 
DISL,ioos:station:DISL:PPTA:1,2017-12-02T15:30:00Z,30.2791,-87.5561,18.6,1111122 
DISL,ioos:station:DISL:PPTA:1,2017-12-02T16:00:00Z,30.2791,-87.5561,18.2,11111222 
DISL,ioos:station:DISL:PPTA:1,2017-12-02T16:30:00Z,30.2791,-87.5561,19.25,1111122 
DISL,ioos:station:DISL:PPTA:1,2017-12-02T17:00:00Z,30.2791,-87.5561,20.1,11111222 
DISL,ioos:station:DISL:PPTA:1,2017-12-02T17:30:00Z,30.2791,-87.5561,19.53,1111122 
DISL,ioos:station:DISL:PPTA:1,2017-12-02T18:00:00Z,30.2791,-87.5561,20.0,11111222 
DISL,ioos:station:DISL:PPTA:1,2017-12-02T18:30:00Z,30.2791,-87.5561,19.36,1111122 
DISL,ioos:station:DISL:PPTA:1,2017-12-02T19:00:00Z,30.2791,-87.5561,19.6,11111222 
DISL,ioos:station:DISL:PPTA:1,2017-12-02T19:30:00Z,30.2791,-87.5561,20.39,1111122 
DISL,ioos:station:DISL:PPTA:1,2017-12-02T20:00:00Z,30.2791,-87.5561,20.5,11111222 
DISL,ioos:station:DISL:PPTA:1,2017-12-02T20:30:00Z,30.2791,-87.5561,20.61,1111122 
DISL,ioos:station:DISL:PPTA:1,2017-12-02T21:00:00Z,30.2791,-87.5561,20.9,11111222 
DISL,ioos:station:DISL:PPTA:1,2017-12-02T21:30:00Z,30.2791,-87.5561,21.77,1111122 
DISL,ioos:station:DISL:PPTA:1,2017-12-02T22:00:00Z,30.2791,-87.5561,22.5,11111222 
DISL,ioos:station:DISL:PPTA:1,2017-12-02T22:30:00Z,30.2791,-87.5561,21.71,1111122 
DISL,ioos:station:DISL:PPTA:1,2017-12-02T23:00:00Z,30.2791,-87.5561,20.6,11111222 
DISL,ioos:station:DISL:PPTA:1,2017-12-02T23:30:00Z,30.2791,-87.5561,19.05,1111122 
DISL,ioos:station:DISL:PPTA:1,2017-12-03T00:00:00Z,30.2791,-87.5561,18.4,11111222 
DISL,ioos:station:DISL:PPTA:1,2017-12-03T00:30:00Z,30.2791,-87.5561,17.71,1111122 
DISL,ioos:station:DISL:PPTA:1,2017-12-03T01:00:00Z,30.2791,-87.5561,17.9,11111222 
DISL,ioos:station:DISL:PPTA:1,2017-12-03T01:30:00Z,30.2791,-87.5561,17.65,1111122 
DISL,ioos:station:DISL:PPTA:1,2017-12-03T02:00:00Z,30.2791,-87.5561,17.3,11111222 
DISL,ioos:station:DISL:PPTA:1,2017-12-03T02:30:00Z,30.2791,-87.5561,16.93,1111122 
DISL,ioos:station:DISL:PPTA:1,2017-12-03T03:00:00Z,30.2791,-87.5561,16.5,11111222 
DISL,ioos:station:DISL:PPTA:1,2017-12-03T03:30:00Z,30.2791,-87.5561,16.15,1111122 
DISL,ioos:station:DISL:PPTA:1,2017-12-03T04:00:00Z,30.2791,-87.5561,15.9,11111222 
DISL,ioos:station:DISL:PPTA:1,2017-12-03T04:30:00Z,30.2791,-87.5561,15.34,1111122 
DISL,ioos:station:DISL:PPTA:1,2017-12-03T05:00:00Z,30.2791,-87.5561,15.1,11111222 
DISL,ioos:station:DISL:PPTA:1,2017-12-03T05:30:00Z,30.2791,-87.5561,15.0,1111122 
DISL,ioos:station:DISL:PPTA:1,2017-12-03T06:00:00Z,30.2791,-87.5561,15.0,11111222 
DISL,ioos:station:DISL:PPTA:1,2017-12-03T06:30:00Z,30.2791,-87.5561,14.87,1111122 
DISL,ioos:station:DISL:PPTA:1,2017-12-03T07:00:00Z,30.2791,-87.5561,14.8,11111222 
DISL,ioos:station:DISL:PPTA:1,2017-12-03T07:30:00Z,30.2791,-87.5561,14.6,1111122 
DISL,ioos:station:DISL:PPTA:1,2017-12-03T08:00:00Z,30.2791,-87.5561,14.3,11111222 
DISL,ioos:station:DISL:PPTA:1,2017-12-03T08:30:00Z,30.2791,-87.5561,14.12,1111122 
DISL,ioos:station:DISL:PPTA:1,2017-12-03T09:00:00Z,30.2791,-87.5561,14.1,11111222 
DISL,ioos:station:DISL:PPTA:1,2017-12-03T09:30:00Z,30.2791,-87.5561,13.71,1111122 
DISL,ioos:station:DISL:PPTA:1,2017-12-03T10:00:00Z,30.2791,-87.5561,13.7,11111222 
DISL,ioos:station:DISL:PPTA:1,2017-12-03T10:30:00Z,30.2791,-87.5561,13.89,1111122 
DISL,ioos:station:DISL:PPTA:1,2017-12-03T11:00:00Z,30.2791,-87.5561,13.6,11111222 
DISL,ioos:station:DISL:PPTA:1,2017-12-03T11:30:00Z,30.2791,-87.5561,13.72,1111122 
DISL,ioos:station:DISL:PPTA:1,2017-12-03T12:00:00Z,30.2791,-87.5561,13.6,11111222 
DISL,ioos:station:DISL:PPTA:1,2017-12-03T12:30:00Z,30.2791,-87.5561,13.58,1111122 
DISL,ioos:station:DISL:PPTA:1,2017-12-03T13:00:00Z,30.2791,-87.5561,13.0,11111222 
DISL,ioos:station:DISL:PPTA:1,2017-12-03T13:30:00Z,30.2791,-87.5561,12.87,1111122 
DISL,ioos:station:DISL:PPTA:1,2017-12-03T14:00:00Z,30.2791,-87.5561,13.0,11111222 
DISL,ioos:station:DISL:PPTA:1,2017-12-03T14:30:00Z,30.2791,-87.5561,14.6,1111122 
DISL,ioos:station:DISL:PPTA:1,2017-12-03T15:00:00Z,30.2791,-87.5561,15.0,11111222 
DISL,ioos:station:DISL:PPTA:1,2017-12-03T15:30:00Z,30.2791,-87.5561,16.08,1111122 
DISL,ioos:station:DISL:PPTA:1,2017-12-03T16:00:00Z,30.2791,-87.5561,16.6,11111222 
DISL,ioos:station:DISL:PPTA:1,2017-12-03T16:30:00Z,30.2791,-87.5561,17.7,1111122 
DISL,ioos:station:DISL:PPTA:1,2017-12-03T17:00:00Z,30.2791,-87.5561,18.5,11111222 
DISL,ioos:station:DISL:PPTA:1,2017-12-03T17:30:00Z,30.2791,-87.5561,18.46,1111122 
DISL,ioos:station:DISL:PPTA:1,2017-12-03T18:00:00Z,30.2791,-87.5561,18.5,11111222 
DISL,ioos:station:DISL:PPTA:1,2017-12-03T18:30:00Z,30.2791,-87.5561,18.84,1111122 
DISL,ioos:station:DISL:PPTA:1,2017-12-03T19:00:00Z,30.2791,-87.5561,19.6,11111222 
DISL,ioos:station:DISL:PPTA:1,2017-12-03T19:30:00Z,30.2791,-87.5561,20.61,1111122 
DISL,ioos:station:DISL:PPTA:1,2017-12-03T20:00:00Z,30.2791,-87.5561,20.2,11111222 
DISL,ioos:station:DISL:PPTA:1,2017-12-03T20:30:00Z,30.2791,-87.5561,20.1,1111122 
DISL,ioos:station:DISL:PPTA:1,2017-12-03T21:00:00Z,30.2791,-87.5561,20.8,11111222 
DISL,ioos:station:DISL:PPTA:1,2017-12-03T21:30:00Z,30.2791,-87.5561,20.14,1111122 
DISL,ioos:station:DISL:PPTA:1,2017-12-03T22:00:00Z,30.2791,-87.5561,21.3,11111222 
DISL,ioos:station:DISL:PPTA:1,2017-12-03T22:30:00Z,30.2791,-87.5561,19.26,1111122 
DISL,ioos:station:DISL:PPTA:1,2017-12-03T23:00:00Z,30.2791,-87.5561,18.8,11111222 
DISL,ioos:station:DISL:PPTA:1,2017-12-03T23:30:00Z,30.2791,-87.5561,18.04,1111122 
DISL,ioos:station:DISL:PPTA:1,2017-12-04T00:30:00Z,30.2791,-87.5561,17.14,1111122 
DISL,ioos:station:DISL:PPTA:1,2017-12-04T01:00:00Z,30.2791,-87.5561,16.8,11111222 
DISL,ioos:station:DISL:PPTA:1,2017-12-04T01:30:00Z,30.2791,-87.5561,16.66,1111122 
DISL,ioos:station:DISL:PPTA:1,2017-12-04T02:00:00Z,30.2791,-87.5561,16.42,1111122 
DISL,ioos:station:DISL:PPTA:1,2017-12-04T02:30:00Z,30.2791,-87.5561,16.4,11111222 
DISL,ioos:station:DISL:PPTA:1,2017-12-04T03:00:00Z,30.2791,-87.5561,16.3,11111222 
DISL,ioos:station:DISL:PPTA:1,2017-12-04T03:30:00Z,30.2791,-87.5561,17.35,1111122 
DISL,ioos:station:DISL:PPTA:1,2017-12-04T04:00:00Z,30.2791,-87.5561,17.7,11111222 
DISL,ioos:station:DISL:PPTA:1,2017-12-04T04:30:00Z,30.2791,-87.5561,17.51,1111122 
DISL,ioos:station:DISL:PPTA:1,2017-12-04T05:00:00Z,30.2791,-87.5561,17.5,11111222 
DISL,ioos:station:DISL:PPTA:1,2017-12-04T05:30:00Z,30.2791,-87.5561,17.38,1111122 
DISL,ioos:station:DISL:PPTA:1,2017-12-04T06:00:00Z,30.2791,-87.5561,17.1,11111222 
DISL,ioos:station:DISL:PPTA:1,2017-12-04T06:30:00Z,30.2791,-87.5561,17.17,1111122 
DISL,ioos:station:DISL:PPTA:1,2017-12-04T07:00:00Z,30.2791,-87.5561,16.9,11111222 
DISL,ioos:station:DISL:PPTA:1,2017-12-04T07:30:00Z,30.2791,-87.5561,17.1,1111122 
DISL,ioos:station:DISL:PPTA:1,2017-12-04T08:00:00Z,30.2791,-87.5561,17.3,11111222 
DISL,ioos:station:DISL:PPTA:1,2017-12-04T08:30:00Z,30.2791,-87.5561,17.24,1111122 
DISL,ioos:station:DISL:PPTA:1,2017-12-04T09:00:00Z,30.2791,-87.5561,17.04,1111122 
DISL,ioos:station:DISL:PPTA:1,2017-12-04T09:30:00Z,30.2791,-87.5561,17.3,11111222 
DISL,ioos:station:DISL:PPTA:1,2017-12-04T10:00:00Z,30.2791,-87.5561,19.7,11111222 
DISL,ioos:station:DISL:PPTA:1,2017-12-04T10:30:00Z,30.2791,-87.5561,19.1,1111122 
DISL,ioos:station:DISL:PPTA:1,2017-12-04T11:00:00Z,30.2791,-87.5561,19.2,11111222 
DISL,ioos:station:DISL:PPTA:1,2017-12-04T11:30:00Z,30.2791,-87.5561,19.24,1111122 
DISL,ioos:station:DISL:PPTA:1,2017-12-04T12:00:00Z,30.2791,-87.5561,19.2,11111222 
DISL,ioos:station:DISL:PPTA:1,2017-12-04T12:30:00Z,30.2791,-87.5561,19.17,1111122 
DISL,ioos:station:DISL:PPTA:1,2017-12-04T13:00:00Z,30.2791,-87.5561,19.1,11111222 
DISL,ioos:station:DISL:PPTA:1,2017-12-04T13:30:00Z,30.2791,-87.5561,19.27,1111122 
DISL,ioos:station:DISL:PPTA:1,2017-12-04T14:00:00Z,30.2791,-87.5561,18.9,11111222 
DISL,ioos:station:DISL:PPTA:1,2017-12-04T14:30:00Z,30.2791,-87.5561,18.37,1111122 
DISL,ioos:station:DISL:PPTA:1,2017-12-04T15:00:00Z,30.2791,-87.5561,18.8,11111222 
DISL,ioos:station:DISL:PPTA:1,2017-12-04T15:30:00Z,30.2791,-87.5561,19.05,1111122 
DISL,ioos:station:DISL:PPTA:1,2017-12-04T16:00:00Z,30.2791,-87.5561,18.6,11111222 
DISL,ioos:station:DISL:PPTA:1,2017-12-04T16:30:00Z,30.2791,-87.5561,19.15,1111122 
DISL,ioos:station:DISL:PPTA:1,2017-12-04T17:00:00Z,30.2791,-87.5561,19.3,11111222 
DISL,ioos:station:DISL:PPTA:1,2017-12-04T17:30:00Z,30.2791,-87.5561,19.28,1111122 
DISL,ioos:station:DISL:PPTA:1,2017-12-04T18:00:00Z,30.2791,-87.5561,19.7,11111222 
DISL,ioos:station:DISL:PPTA:1,2017-12-04T18:30:00Z,30.2791,-87.5561,19.86,1111122 
DISL,ioos:station:DISL:PPTA:1,2017-12-04T19:00:00Z,30.2791,-87.5561,19.8,11111222 
DISL,ioos:station:DISL:PPTA:1,2017-12-04T19:30:00Z,30.2791,-87.5561,19.86,1111122 
DISL,ioos:station:DISL:PPTA:1,2017-12-04T20:00:00Z,30.2791,-87.5561,19.8,11111222 
DISL,ioos:station:DISL:PPTA:1,2017-12-04T20:30:00Z,30.2791,-87.5561,19.86,1111122 
DISL,ioos:station:DISL:PPTA:1,2017-12-04T21:00:00Z,30.2791,-87.5561,19.9,11111222 
DISL,ioos:station:DISL:PPTA:1,2017-12-04T21:30:00Z,30.2791,-87.5561,19.83,1111122 
DISL,ioos:station:DISL:PPTA:1,2017-12-04T22:00:00Z,30.2791,-87.5561,19.9,11111222 
DISL,ioos:station:DISL:PPTA:1,2017-12-04T22:30:00Z,30.2791,-87.5561,20.07,1111122 
DISL,ioos:station:DISL:PPTA:1,2017-12-04T23:00:00Z,30.2791,-87.5561,20.2,11111222 
DISL,ioos:station:DISL:PPTA:1,2017-12-04T23:30:00Z,30.2791,-87.5561,20.34,1111122 
DISL,ioos:station:DISL:PPTA:1,2017-12-05T00:00:00Z,30.2791,-87.5561,20.3,11111222 
DISL,ioos:station:DISL:PPTA:1,2017-12-05T00:30:00Z,30.2791,-87.5561,20.44,1111122 
DISL,ioos:station:DISL:PPTA:1,2017-12-05T01:00:00Z,30.2791,-87.5561,20.5,11111222 
DISL,ioos:station:DISL:PPTA:1,2017-12-05T01:30:00Z,30.2791,-87.5561,20.61,1111122 
DISL,ioos:station:DISL:PPTA:1,2017-12-05T02:00:00Z,30.2791,-87.5561,20.7,11111222 
DISL,ioos:station:DISL:PPTA:1,2017-12-05T02:30:00Z,30.2791,-87.5561,20.34,1111122 
DISL,ioos:station:DISL:PPTA:1,2017-12-05T03:00:00Z,30.2791,-87.5561,20.0,11111222 
DISL,ioos:station:DISL:PPTA:1,2017-12-05T03:30:00Z,30.2791,-87.5561,19.45,1111122 
DISL,ioos:station:DISL:PPTA:1,2017-12-05T04:00:00Z,30.2791,-87.5561,19.8,11111222 
DISL,ioos:station:DISL:PPTA:1,2017-12-05T04:30:00Z,30.2791,-87.5561,19.83,1111122 
DISL,ioos:station:DISL:PPTA:1,2017-12-05T05:00:00Z,30.2791,-87.5561,19.9,11111222 
DISL,ioos:station:DISL:PPTA:1,2017-12-05T05:30:00Z,30.2791,-87.5561,20.21,1111122 
DISL,ioos:station:DISL:PPTA:1,2017-12-05T06:00:00Z,30.2791,-87.5561,20.4,11111222 
DISL,ioos:station:DISL:PPTA:1,2017-12-05T06:30:00Z,30.2791,-87.5561,20.68,1111122 
DISL,ioos:station:DISL:PPTA:1,2017-12-05T07:00:00Z,30.2791,-87.5561,20.8,11111222 
DISL,ioos:station:DISL:PPTA:1,2017-12-05T07:30:00Z,30.2791,-87.5561,21.06,1111122 
DISL,ioos:station:DISL:PPTA:1,2017-12-05T08:00:00Z,30.2791,-87.5561,20.7,11111222 
DISL,ioos:station:DISL:PPTA:1,2017-12-05T08:30:00Z,30.2791,-87.5561,21.23,1111122 
DISL,ioos:station:DISL:PPTA:1,2017-12-05T09:00:00Z,30.2791,-87.5561,21.3,11111222 
DISL,ioos:station:DISL:PPTA:1,2017-12-05T09:30:00Z,30.2791,-87.5561,21.3,1111122 
DISL,ioos:station:DISL:PPTA:1,2017-12-05T10:00:00Z,30.2791,-87.5561,21.2,11111222 
DISL,ioos:station:DISL:PPTA:1,2017-12-05T10:30:00Z,30.2791,-87.5561,21.23,1111122 
DISL,ioos:station:DISL:PPTA:1,2017-12-05T11:00:00Z,30.2791,-87.5561,21.2,11111222 
DISL,ioos:station:DISL:PPTA:1,2017-12-05T11:30:00Z,30.2791,-87.5561,21.06,1111122 
DISL,ioos:station:DISL:PPTA:1,2017-12-05T12:00:00Z,30.2791,-87.5561,21.0,11111222 
DISL,ioos:station:DISL:PPTA:1,2017-12-05T12:30:00Z,30.2791,-87.5561,20.75,1111122 
DISL,ioos:station:DISL:PPTA:1,2017-12-05T13:00:00Z,30.2791,-87.5561,20.9,11111222 
DISL,ioos:station:DISL:PPTA:1,2017-12-05T13:30:00Z,30.2791,-87.5561,21.54,1111122 
DISL,ioos:station:DISL:PPTA:1,2017-12-05T14:00:00Z,30.2791,-87.5561,22.3,11111222 
DISL,ioos:station:DISL:PPTA:1,2017-12-05T14:30:00Z,30.2791,-87.5561,22.78,1111122 
DISL,ioos:station:DISL:PPTA:1,2017-12-05T15:00:00Z,30.2791,-87.5561,22.2,11111222 
DISL,ioos:station:DISL:PPTA:1,2017-12-05T15:30:00Z,30.2791,-87.5561,23.34,1111122 
DISL,ioos:station:DISL:PPTA:1,2017-12-05T16:00:00Z,30.2791,-87.5561,23.0,11111222 
DISL,ioos:station:DISL:PPTA:1,2017-12-05T16:30:00Z,30.2791,-87.5561,23.05,1111122 
DISL,ioos:station:DISL:PPTA:1,2017-12-05T17:00:00Z,30.2791,-87.5561,23.6,11111222 
DISL,ioos:station:DISL:PPTA:1,2017-12-05T17:30:00Z,30.2791,-87.5561,22.53,1111122 
DISL,ioos:station:DISL:PPTA:1,2017-12-05T18:00:00Z,30.2791,-87.5561,22.9,11111222 
DISL,ioos:station:DISL:PPTA:1,2017-12-05T18:30:00Z,30.2791,-87.5561,23.3,1111122 
DISL,ioos:station:DISL:PPTA:1,2017-12-05T19:00:00Z,30.2791,-87.5561,22.8,11111222 
DISL,ioos:station:DISL:PPTA:1,2017-12-05T19:30:00Z,30.2791,-87.5561,23.51,1111122 
DISL,ioos:station:DISL:PPTA:1,2017-12-05T20:00:00Z,30.2791,-87.5561,23.1,11111222 
DISL,ioos:station:DISL:PPTA:1,2017-12-05T20:30:00Z,30.2791,-87.5561,23.71,1111122 
DISL,ioos:station:DISL:PPTA:1,2017-12-05T21:00:00Z,30.2791,-87.5561,24.2,11111222 
DISL,ioos:station:DISL:PPTA:1,2017-12-05T21:30:00Z,30.2791,-87.5561,23.88,1111122 
DISL,ioos:station:DISL:PPTA:1,2017-12-05T22:00:00Z,30.2791,-87.5561,22.5,11111222 
DISL,ioos:station:DISL:PPTA:1,2017-12-05T22:30:00Z,30.2791,-87.5561,21.94,1111122 
DISL,ioos:station:DISL:PPTA:1,2017-12-05T23:00:00Z,30.2791,-87.5561,21.6,11111222 
DISL,ioos:station:DISL:PPTA:1,2017-12-05T23:30:00Z,30.2791,-87.5561,21.65,1111122 
DISL,ioos:station:DISL:PPTA:1,2017-12-06T00:00:00Z,30.2791,-87.5561,21.4,11111222 
DISL,ioos:station:DISL:PPTA:1,2017-12-06T00:30:00Z,30.2791,-87.5561,21.42,1111122 
DISL,ioos:station:DISL:PPTA:1,2017-12-06T01:00:00Z,30.2791,-87.5561,21.7,11111222 
DISL,ioos:station:DISL:PPTA:1,2017-12-06T01:30:00Z,30.2791,-87.5561,21.63,1111122 
DISL,ioos:station:DISL:PPTA:1,2017-12-06T02:00:00Z,30.2791,-87.5561,19.2,11111222 
DISL,ioos:station:DISL:PPTA:1,2017-12-06T02:30:00Z,30.2791,-87.5561,19.42,1111122 
DISL,ioos:station:DISL:PPTA:1,2017-12-06T03:00:00Z,30.2791,-87.5561,19.2,11111222 
DISL,ioos:station:DISL:PPTA:1,2017-12-06T03:30:00Z,30.2791,-87.5561,18.85,1111122 
DISL,ioos:station:DISL:PPTA:1,2017-12-06T04:00:00Z,30.2791,-87.5561,18.8,11111222 
DISL,ioos:station:DISL:PPTA:1,2017-12-06T04:30:00Z,30.2791,-87.5561,18.78,1111122 
DISL,ioos:station:DISL:PPTA:1,2017-12-06T05:00:00Z,30.2791,-87.5561,17.8,11111222 
DISL,ioos:station:DISL:PPTA:1,2017-12-06T05:30:00Z,30.2791,-87.5561,17.05,1111122 
DISL,ioos:station:DISL:PPTA:1,2017-12-06T06:00:00Z,30.2791,-87.5561,16.7,11111222 
DISL,ioos:station:DISL:PPTA:1,2017-12-06T06:30:00Z,30.2791,-87.5561,16.31,1111122 
DISL,ioos:station:DISL:PPTA:1,2017-12-06T07:00:00Z,30.2791,-87.5561,16.4,11111222 
DISL,ioos:station:DISL:PPTA:1,2017-12-06T07:30:00Z,30.2791,-87.5561,16.22,1111122 
DISL,ioos:station:DISL:PPTA:1,2017-12-06T08:00:00Z,30.2791,-87.5561,16.1,11111222 
DISL,ioos:station:DISL:PPTA:1,2017-12-06T08:30:00Z,30.2791,-87.5561,15.74,1111122 
DISL,ioos:station:DISL:PPTA:1,2017-12-06T09:00:00Z,30.2791,-87.5561,14.1,11111222 
DISL,ioos:station:DISL:PPTA:1,2017-12-06T09:30:00Z,30.2791,-87.5561,13.9,1111122 
DISL,ioos:station:DISL:PPTA:1,2017-12-06T10:00:00Z,30.2791,-87.5561,13.2,11111222 
DISL,ioos:station:DISL:PPTA:1,2017-12-06T10:30:00Z,30.2791,-87.5561,13.33,1111122 
DISL,ioos:station:DISL:PPTA:1,2017-12-06T11:00:00Z,30.2791,-87.5561,12.5,11111222 
DISL,ioos:station:DISL:PPTA:1,2017-12-06T11:30:00Z,30.2791,-87.5561,12.35,1111122 
DISL,ioos:station:DISL:PPTA:1,2017-12-06T12:00:00Z,30.2791,-87.5561,11.4,11111222 
DISL,ioos:station:DISL:PPTA:1,2017-12-06T12:30:00Z,30.2791,-87.5561,10.82,1111122 
DISL,ioos:station:DISL:PPTA:1,2017-12-06T13:00:00Z,30.2791,-87.5561,10.8,11111222 
DISL,ioos:station:DISL:PPTA:1,2017-12-06T13:30:00Z,30.2791,-87.5561,10.69,1111122 
DISL,ioos:station:DISL:PPTA:1,2017-12-06T14:00:00Z,30.2791,-87.5561,10.4,11111222 
DISL,ioos:station:DISL:PPTA:1,2017-12-06T14:30:00Z,30.2791,-87.5561,10.49,1111122 
DISL,ioos:station:DISL:PPTA:1,2017-12-06T15:00:00Z,30.2791,-87.5561,10.0,11111222 
DISL,ioos:station:DISL:PPTA:1,2017-12-06T15:30:00Z,30.2791,-87.5561,10.18,1111122 
DISL,ioos:station:DISL:PPTA:1,2017-12-06T16:00:00Z,30.2791,-87.5561,10.5,11111222 
DISL,ioos:station:DISL:PPTA:1,2017-12-06T16:30:00Z,30.2791,-87.5561,9.85,1111122 
DISL,ioos:station:DISL:PPTA:1,2017-12-06T17:00:00Z,30.2791,-87.5561,8.5,11111222 
DISL,ioos:station:DISL:PPTA:1,2017-12-06T17:30:00Z,30.2791,-87.5561,8.35,1111122 
DISL,ioos:station:DISL:PPTA:1,2017-12-06T18:00:00Z,30.2791,-87.5561,7.7,11111222 
DISL,ioos:station:DISL:PPTA:1,2017-12-06T18:30:00Z,30.2791,-87.5561,7.982,1111122 
DISL,ioos:station:DISL:PPTA:1,2017-12-06T19:00:00Z,30.2791,-87.5561,8.5,11111222 
DISL,ioos:station:DISL:PPTA:1,2017-12-06T19:30:00Z,30.2791,-87.5561,8.7,1111122 
DISL,ioos:station:DISL:PPTA:1,2017-12-06T20:00:00Z,30.2791,-87.5561,8.8,11111222 
DISL,ioos:station:DISL:PPTA:1,2017-12-06T20:30:00Z,30.2791,-87.5561,8.97,1111122 
DISL,ioos:station:DISL:PPTA:1,2017-12-06T21:00:00Z,30.2791,-87.5561,9.0,11111222 
DISL,ioos:station:DISL:PPTA:1,2017-12-06T21:30:00Z,30.2791,-87.5561,8.43,1111122 
DISL,ioos:station:DISL:PPTA:1,2017-12-06T22:00:00Z,30.2791,-87.5561,8.1,11111222 
DISL,ioos:station:DISL:PPTA:1,2017-12-06T22:30:00Z,30.2791,-87.5561,7.948,1111122 
DISL,ioos:station:DISL:PPTA:1,2017-12-06T23:00:00Z,30.2791,-87.5561,7.7,11111222 
DISL,ioos:station:DISL:PPTA:1,2017-12-06T23:30:00Z,30.2791,-87.5561,6.861,1111122 
DISL,ioos:station:DISL:PPTA:1,2017-12-07T00:00:00Z,30.2791,-87.5561,6.7,11111222 